Flag for China Weather past 2 weeks in Dalian, Liaoning, China

Now
63 °F

Clear.


Feels Like: 63 °F
Forecast: 70 / 80 °F
Wind: 3 mph from West

Location: Dalian Airport

Current Time: Jul 2, 2015 at 4:17:00 AM

Latest Report: Jul 2, 2015 at 3:30 AM


Visibility: 10 mi

Pressure: 29.50 "Hg

Humidity: 73%

Dew point: 54 °F

Location of DalianLocation

Historic Weather in Dalian — Graph

°F

Dalian temperature yesterday

Maximum temperature yesterday: 82 °F (at 1:00 PM)
Minimum temperature yesterday: 64 °F (at 12:00 AM)
Average temperature yesterday: 74 °F

Past Weeks' High & Low Weather Summary

 TemperatureHumidityPressure
High86 °F (Jun 27, 11:30 AM)100% (Jun 30, 6:00 AM)29.86 "Hg (Jun 30, 6:00 AM)
Low63 °F (Jun 30, 10:30 PM)30% (Jul 1, 3:00 PM)29.39 "Hg (Jul 1, 2:30 AM)
Average73 °F71%29.70 "Hg
* Reported Jun 17 3:00 AM — Jul 2 3:00 AM, Dalian, Weather by CustomWeather, © 2015

Note: Actual official high and low records may vary slightly from our data, if they occured in-between our weather recording intervals... More about our weather records

Advertising

Dalian weather history for previous 24 hours

 ConditionsComfort  
Time TempWeatherWind HumidityBarometerVisibility
3:00 AM
Thu, Jul 2
66 °FClear.1 mph68%29.50 "Hg10 mi
2:30 AM64 °FClear.6 mph78%29.50 "Hg10 mi
2:00 AM66 °FClear.6 mph73%29.50 "Hg10 mi
1:30 AM68 °FClear.3 mph69%29.50 "Hg10 mi
1:00 AM68 °FClear.1 mph64%29.50 "Hg10 mi
12:30 AM70 °FPassing clouds.3 mph64%29.53 "HgN/A
12:00 AM70 °FPassing clouds.3 mph64%29.53 "Hg5 mi
11:30 PM
Wed, Jul 1
70 °FLight rain. Passing clouds.3 mph73%29.53 "Hg4 mi
11:00 PM70 °FLight rain. Passing clouds.8 mph78%29.53 "Hg4 mi
10:30 PM70 °FLight rain. Passing clouds.10 mph73%29.53 "Hg4 mi
10:00 PM70 °FLight rain. Passing clouds.10 mph78%29.53 "Hg5 mi
9:30 PM72 °FClear.15 mph69%29.53 "Hg10 mi
9:00 PM77 °FPassing clouds.6 mph44%29.50 "HgN/A
8:30 PM77 °FPassing clouds.3 mph42%29.47 "HgN/A
8:00 PM77 °FClear.No wind42%29.47 "Hg10 mi
7:30 PM77 °FClear.3 mph39%29.45 "Hg10 mi
7:00 PM77 °FSunny.3 mph39%29.45 "Hg10 mi
6:30 PM79 °FPassing clouds.6 mph34%29.45 "HgN/A
6:00 PM79 °FSunny.8 mph37%29.45 "Hg10 mi
5:30 PM81 °FPassing clouds.8 mph34%29.45 "HgN/A
5:00 PM82 °FPassing clouds.10 mph30%29.42 "HgN/A
4:30 PM81 °FSunny.10 mph30%29.42 "Hg10 mi
4:00 PM82 °FPassing clouds.13 mph30%29.42 "HgN/A
3:30 PM82 °FPassing clouds.10 mph30%29.42 "HgN/A
3:00 PM82 °FPassing clouds.10 mph30%29.42 "HgN/A
2:30 PM82 °FPassing clouds.13 mph32%29.42 "HgN/A
2:00 PM82 °FPassing clouds.13 mph32%29.42 "HgN/A
1:30 PM82 °FPassing clouds.15 mph32%29.42 "HgN/A
1:00 PM82 °FPassing clouds.13 mph35%29.42 "HgN/A
12:30 PM81 °FPassing clouds.15 mph37%29.42 "HgN/A
11:30 AM81 °FPassing clouds.13 mph37%29.42 "HgN/A
10:30 AM79 °FPassing clouds.13 mph48%29.42 "HgN/A
10:00 AM79 °FSunny.13 mph51%29.42 "Hg10 mi
9:30 AM77 °FSunny.15 mph57%29.39 "Hg10 mi
9:00 AM77 °FSunny.15 mph61%29.39 "Hg10 mi
8:30 AM73 °FSunny.17 mph65%29.39 "Hg10 mi
8:00 AM73 °FSunny.17 mph65%29.39 "Hg10 mi
7:30 AM73 °FSunny.20 mph65%29.42 "Hg10 mi
7:00 AM73 °FSunny.20 mph61%29.42 "Hg10 mi
6:30 AM72 °FSunny.15 mph65%29.39 "Hg10 mi
6:00 AM70 °FSunny.17 mph69%29.39 "Hg10 mi
5:30 AM68 °FSunny.15 mph73%29.39 "Hg10 mi
5:00 AM68 °FSunny.13 mph69%29.39 "Hg10 mi
4:30 AM66 °FClear.13 mph68%29.39 "Hg10 mi
4:00 AM66 °FClear.8 mph64%29.39 "Hg10 mi
Weather by CustomWeather, © 2015

See weather overviewHow to use our weather pages